FENGYUN 1C DEB, 32152

Orbit data source: Space-Track

FENGYUN 1C DEB, 32152 is space debris in SSO originally from a launch on Mon, 10 May 1999 UTC launched from the Taiyaun Space Center, China (TSC). Fengyun 1C debris stems from the Chinese weather satellite Fengyun-1C, which was intentionally destroyed by a Chinese anti-satellite missile in 2007. This event dramatically increased the amount of space debris, with thousands of trackable fragments posing hazards to satellites and human spaceflight. The Fengyun 1C debris cloud has become a focal point in discussions about space sustainability and the need for international regulations to prevent the creation of new debris.

Loading next visibility...
Identifier
32152, 1999-025CSW
Orbit
SSO
Country
Flag of CNCN / PRC
Related business
Manufacturer
Unknown
Mission
Spacecraft
Bus & Motor
Unknown
Mass
Unknown
Launch date (UTC)
1999-05-10 (27 years ago)
Launch vehicle
Unknown
Launch site
Taiyaun Space Center, China (TSC)
Object type
Payload
Rocket body
Debris
Shape & HBR
Unknown shape, 0.1 m
Radar Cross Section
Small (<0.1 m²)

Expand to show TLE details & history
Last TLE update: 1 day ago

TLE from 1 day ago
0 FENGYUN 1C DEB
1 32152U 99025CSW 26123.22816125  .00007180  00000-0  15110-2 0  9995
2 32152  98.7733 296.9417 0054504 128.3005 232.3113 14.58906914646746
Epoch: 2026-05-03T05:28Z
TLE epoch observation values (Epoch: 2026-05-03T05:28:33.131Z)
Latitude
0.00002°
Longitude
-6.33107°
Altitude
723.382 km
Speed
7.481 km/s
True Right ascension
19h 47m 46s
True Declination
0° 00' 00"
Sunlit
Object was in daylight at epoch
Visualization orbit readout
Latitude
Unknown
Longitude
Unknown
Altitude
Unknown
Speed
Unknown
Apparent Right ascension
Unknown
Apparent Declination
Unknown
Sunlit
N/A
Visualization observer readout
Local Sidereal Time
15:49:05
Azimuth
Unknown
Elevation
Unknown
Doppler factor
Unknown
Orbital elements
Apogee altitude
732.36 km
Perigee altitude
655.27 km
Semi-major axis
7,071.952 km
Eccentricity
0.00545
Inclination
98.7733°
RAAN
296.9417°
Arg. of periapsis
128.3005°
True anomaly
231.81911°
Mean anomaly
232.3113°
Eccentric anomaly
232.065°
Mean motion
3.64951 °/min
Orbital period
98.64 mins
BSTAR
0.001511
Loading maneuver chart data...
Computing Atmospheric mass density...
Loading historical data...
Loading historical data...
Loading historical data...
Loading historical data...
Loading historical data...
Loading historical data...
Loading historical data...

Documentation

Showing up to 5 results
|